Location: Brusselsch Zeekanaal
(50.8667°N, 4.3667°E)
Time: 22:46:49
(UTC+00:00)

Okean 1 Rocket - Pass Details

Date: 08 November 2025
Orbit: 599 x 628 km, 82.5° (Epoch: 04 December)

Event Time Altitude Azimuth Distance (km) Brightness Sun altitude
Rises 06:04:30 0° 352° (N) 2,889 6.2 -7.0°
Reaches altitude 10° 06:06:46 10° 356° (N) 1,975 5.4 -6.7°
Maximum altitude 06:11:06 60° 77° (ENE) 697 3.7 -6.0°
Drops below altitude 10° 06:15:21 10° 158° (SSE) 1,944 6.3 -5.4°
Sets 06:17:34 0° 162° (SSE) 2,840 7.1 -5.1°
